STARLINK-32843, 62814

Orbit data source: Space-Track

STARLINK-32843, 62814 is a payload satellite owned by SpaceX/Seattle (US) in LEO that was launched on Fri, 24 Jan 2025 UTC via an FALCON 9 launch vehicle from the Air Force Western Test Range (AFWTR). Payload-class satellites include a variety of spacecraft equipped with specific instruments for various scientific and technological missions. These include communications satellites like Starlink; space stations such as the ISS; scientific satellites like the Hubble; Earth observation satellites from companies like Planet Labs, Umbra, and HawkEye 360; GPS; miniature CubeSats for education and research; and military/defense satellites.

Loading next visibility...
Identifier
62814, 2025-018J
Orbit
LEO
Last TLE update
22 hours ago
Origin
Manufacturer
SpaceX/Seattle
Mission
Operational Commercial Communications
Bus & Motor
STARLINK V2M, Unknown motor
Mass
730 kg wet, ~700 kg dry
Launch date (UTC)
2025-01-24 (5 months ago)
Launch vehicle
FALCON 9
Launch site
Air Force Western Test Range (AFWTR)
Object type
Payload
Rocket body
Debris
Shape & HBR
Box + 2 Pan, 29 m
Radar Cross Section
33.884 m², Large (>1 m²)

Expand to show TLE details & history

TLE from 22 hours ago
0 STARLINK-32843
1 62814U 25018J   25169.20930143  .00026441  00000-0  90134-3 0  9999
2 62814  53.1596  98.2021 0001021  97.4761 262.6356 15.30212413 23582
Epoch: 2025-06-18T05:01Z
TLE epoch observation values (Epoch: 2025-06-18T05:01:23.643Z)
Latitude
-0.00001°
Longitude
116.15896°
Altitude
476.167 km
Speed
7.629 km/s
True Right ascension
06h 32m 48s
True Declination
0° 00' 00"
Sunlit
Object was in daylight at epoch
Visualization orbit readout
Latitude
52.31205°
Longitude
-173.49014°
Altitude
480.721 km
Speed
7.632 km/s
Apparent Right ascension
05h 58m 25s
Apparent Declination
21° 08' 06"
Sunlit
Object is in daylight
Visualization observer readout
Local Sidereal Time
14:09:07
Azimuth
307.371° NW
Elevation
-8.908°
Doppler factor
1
Orbital elements
Apogee altitude
476.134 km
Perigee altitude
474.735 km
Semi-major axis
6,853.572 km
Eccentricity
0.0001
Inclination
53.1596°
RAAN
98.2021°
Arg. of periapsis
97.4761°
True anomaly
Unknown
Mean anomaly
262.6356°
Eccentric anomaly
Unknown
Mean motion
3.82532 °/min
Orbital period
94.11 mins
BSTAR
0.00090134
Loading maneuver chart data...
Loading SW <> Apogee altitude chart data...
Loading historical data...
Loading historical data...
Loading historical data...
Loading historical data...
Loading historical data...
Loading historical data...
Loading historical data...

STARLINK-32843 Visibility forecast

Observer location: undefined°, undefined°

Span
Click to sort rows by Start time (UTC) header in descending order
Start Az.
Max El. time (UTC)
Max El. Az.
Max El.
End time (UTC)
End Az.
5 mins2025-06-19 03:25:08.906Z336.552° NNW2025-06-19 03:28:08.906Z36.943° NE20.137°2025-06-19 03:30:08.906Z73.454° E
5 mins2025-06-19 05:04:08.906Z294.942° NW2025-06-19 05:06:08.906Z196.154° SSW40.692°2025-06-19 05:09:08.906Z143.304° SSE
5 mins2025-06-19 21:59:08.906Z247.481° WSW2025-06-19 22:01:08.906Z310.627° NW41.135°2025-06-19 22:04:08.906Z41.801° NE
4 mins2025-06-20 02:56:08.906Z345.487° N2025-06-20 02:58:08.906Z26.346° NE19.057°2025-06-20 03:00:08.906Z65.408° ENE
|